Location: Wagman Observatory
(40.6260°N, 79.8130°W)
Time: 21:59:08
(UTC-04:00)

Daily predictions for brighter satellites

Satellite Brightness Start Highest point End
(mag) Time Altitude Azimuth Time Altitude Azimuth Time Altitude Azimuth
USA 32 4.1 21:19:09 10° S 21:24:22 74° E 21:29:37 10° N
Cosmos 1605 Rocket 4.4 21:20:12 10° NNW 21:26:27 72° W 21:32:46 10° S
Cosmos 2227 Rocket 3.9 21:21:26 10° SW 21:26:41 39° WNW 21:31:58 10° N
Cosmos 1340 Rocket 2.9 21:22:51 10° S 21:26:52 84° W 21:30:58 10° N
Cosmos 1674 3.2 21:23:32 10° SSE 21:27:03 39° E 21:30:33 10° NNE
Cosmos 614 Rocket 4.4 21:23:22 10° SSW 21:28:34 70° WNW 21:33:45 10° NNE
ARGOS 4.4 21:24:50 10° ESE 21:29:17 27° ENE 21:33:45 10° N
Cosmos 1939 Rocket 2.9 21:25:32 10° SSE 21:29:33 87° ENE 21:33:38 10° NNW
Cosmos 1076 Rocket 3.9 21:26:34 10° SSE 21:30:44 45° E 21:34:54 10° NNE
In-Cosmos 22 4.4 21:25:11 10° S 21:30:54 84° W 21:36:43 10° N
USA 234 4.0 21:28:39 10° ENE 21:34:04 27° SE 21:39:28 10° S
Cosmos 1242 Rocket 3.0 21:32:08 10° N 21:35:44 47° ENE 21:39:18 10° SSE
SL-16 R/B 2.4 21:32:35 10° NNW 21:38:16 75° WSW 21:43:53 10° SSE
Cosmos 1408 Rocket 4.3 21:34:53 10° SSE 21:38:45 34° E 21:42:40 10° NNE
Cosmos 1908 3.3 21:36:23 10° N 21:40:14 58° E 21:44:01 10° SSE
SAR-Lupe-1 4.1 21:39:22 10° SSE 21:42:55 68° ENE 21:46:32 10° N
Cosmos 1867 3.7 21:38:33 10° SSW 21:43:59 86° WNW 21:49:30 10° NNE
Cosmos 1850 Rocket 4.4 21:40:34 10° SSW 21:45:42 70° WNW 21:50:55 10° NNE
Cosmos 2221 2.6 21:41:58 10° N 21:46:22 85° W 21:50:45 10° S
ERS-1 Rocket 3.2 21:42:14 10° SSE 21:47:09 59° ENE 21:52:06 10° N
KORONAS-FOTON 4.1 21:43:56 10° SSE 21:47:35 47° E 21:51:14 10° NNE
Cosmos 1802 Rocket 4.2 21:42:32 10° N 21:48:35 57° E 21:54:36 10° SSE
Atlas Centaur 2 3.4 21:55:09 10° SSW 21:55:47 10° SSW 21:56:24 10° S
Tiangong 1 1.5 21:54:37 10° WNW 21:57:23 51° N 22:00:06 10° E
NOAA 11 4.2 22:02:06 11° SSE 22:07:24 82° ENE 22:12:51 10° NNW
Abrixas 3.1 22:05:34 10° SSW 22:07:56 28° SE 22:09:36 15° E
CZ-4B DEB 4.2 22:05:43 10° SSW 22:08:24 31° W 22:11:07 10° NNW
H-2A R/B 2.8 22:07:55 16° SE 22:11:49 41° ENE 22:16:52 10° N
Cosmos 2016 Rocket 4.0 22:06:10 10° N 22:12:25 74° E 22:17:59 13° SSE
Helios 1B rocket 4.2 22:09:58 10° N 22:13:45 35° WNW 22:17:31 10° SW
Cosmos 2227 4.3 22:09:04 10° SSW 22:14:48 87° WNW 22:20:33 10° NNE
Cosmos 1766 Rocket 3.6 22:12:42 10° S 22:17:01 81° W 22:21:24 10° N
MetOp-B 4.1 22:14:15 13° SSE 22:18:59 88° ENE 22:24:22 10° NNW
YAOGAN 6 4.3 22:16:26 10° SSW 22:19:42 31° W 22:23:01 10° NNW
Cosmos 1328 Rocket 3.7 22:17:06 10° N 22:21:22 54° E 22:23:58 22° SSE
ERBS 2.7 22:20:45 10° NW 22:24:05 53° NE 22:25:48 25° ESE
Cosmos 371 Rocket 3.4 22:19:26 10° NNW 22:24:14 62° ENE 22:27:15 22° SE
Cosmos 1151 Rocket 4.0 22:20:39 10° NNE 22:24:37 32° ENE 22:26:36 22° ESE
Cosmos 1626 3.6 22:24:03 19° ESE 22:24:41 20° E 22:27:27 10° NE
Cosmos 1515 Rocket 3.9 22:24:20 10° N 22:28:31 46° E 22:30:41 25° SE
Cosmos 1726 2.0 22:25:31 10° N 22:29:12 87° W 22:31:25 23° S
USA 245 3.1 22:28:04 24° SSE 22:30:04 85° ENE 22:34:24 10° NNW
H-2A R/B 3.7 22:30:44 16° E 22:32:30 21° ENE 22:35:39 10° NNE
Delta 2 Rocket 4.5 22:27:11 10° WSW 22:32:34 43° SSE 22:36:56 15° ESE
Cosmos 1743 Rocket 3.5 22:29:55 19° S 22:32:57 66° E 22:37:15 10° NNE
Cosmos 2263 Rocket 2.4 22:29:13 14° S 22:33:40 46° ESE 22:38:59 10° NE
YAOGAN 11 4.2 22:32:08 20° SSE 22:35:11 85° WSW 22:39:46 10° NNW
GPS 2-05 Rocket1 3.9 22:32:53 10° SW 22:34:46 23° SSW 22:34:46 23° SSW
Cosmos 2233 Rocket 4.3 22:30:12 10° N 22:36:12 48° ENE 22:39:46 23° SE
ATLAS 5 CENTAUR R/B 4.4 22:32:38 10° W 22:36:30 24° NW 22:40:39 10° NNE
Cosmos 1300 2.6 22:35:06 10° N 22:38:57 87° W 22:40:57 27° S
SPOT 5 3.0 22:35:37 20° S 22:39:01 82° WSW 22:44:09 10° NNW
Cosmos 1356 3.9 22:38:22 34° SE 22:39:14 42° E 22:42:33 10° NNE
Lacrosse 5 2.0 22:35:25 10° NW 22:40:27 66° SW 22:43:10 27° SSE
Cosmos 2228 Rocket 3.1 22:37:26 10° N 22:42:03 85° E 22:44:39 26° S
Cosmos 1814 Rocket 4.1 22:39:42 10° NNW 22:45:04 81° WSW 22:48:13 25° SSE
Abrixas rocket 2.1 22:43:50 10° WNW 22:47:05 80° NNE 22:47:59 45° ESE
Nimbus 7 Rocket 4.4 22:41:46 10° NNE 22:47:49 81° ESE 22:53:11 13° SSW
SL-14 R/B 3.5 22:44:49 17° SSW 22:47:51 68° W 22:51:46 10° N
Cosmos 2058 3.1 22:47:51 33° SSE 22:49:24 52° E 22:53:30 10° NNE
Cosmos 841 Rocket 3.5 22:47:28 10° NNW 22:52:43 73° ENE 22:55:14 31° SSE
Cosmos 1486 Rocket 4.0 22:48:03 10° SSW 22:53:19 86° WNW 22:58:40 10° NNE
Cosmos 1763 Rocket 3.4 22:48:16 10° NNW 22:53:24 87° WSW 22:55:57 30° SSE
RESURS DK-1 3.4 22:49:47 10° NW 22:53:41 39° WSW 22:55:44 23° SSW
Landsat 7 3.8 22:51:52 31° SSE 22:54:04 69° ENE 22:58:48 10° N
EO 1 Delta rocket 3.9 22:51:25 24° S 22:54:11 76° W 22:58:51 10° NNW
DMSP B5D2-2 4.0 22:50:48 10° NNE 22:56:01 66° ESE 22:58:55 26° S
SL-08 RB Rocket 4.1 22:53:52 23° S 22:56:35 58° W 23:01:08 10° NNW
H-2A ROCKET BODY 3.7 22:56:27 10° SSW 23:00:40 29° SSE 23:13:48 10° E
SPOT 1/Viking Rocket 3.8 23:04:07 26° S 23:06:59 61° WSW 23:12:06 10° NNW
Cosmos 1844 Rocket 4.2 23:07:26 18° E 23:07:26 18° E 23:10:50 10° ENE
Terra 1.8 23:07:16 38° SE 23:09:00 68° ENE 23:13:44 10° N
ARGOS 4.2 23:05:26 16° SSW 23:09:18 40° W 23:14:24 10° NNW
Cosmos 1455 2.6 23:08:18 10° N 23:12:02 46° E 23:12:26 44° E
Sich 1 4.2 23:14:24 26° E 23:14:24 26° E 23:17:53 10° NNE
USA 234 3.3 23:10:55 10° NE 23:17:28 79° NW 23:23:59 10° SW
CZ-4 R/B 4.1 23:14:14 10° NNE 23:18:55 49° E 23:19:50 43° SE
Cosmos 1943 3.4 23:14:12 10° NNW 23:19:47 63° WSW 23:22:12 34° S
Cosmos 2151 3.5 23:19:26 27° SSW 23:21:35 55° W 23:25:50 10° N
Cosmos 304 Rocket 3.7 23:18:18 10° NNW 23:23:07 74° ENE 23:24:23 48° SE
Cosmos 836 Rocket 4.5 23:18:58 10° NNW 23:24:17 78° ENE 23:26:00 44° SSE
Cosmos 2285 Rocket 4.0 23:20:42 10° NNW 23:27:05 80° ENE 23:29:42 38° SSE
deb Chang Zheng 4 3.5 23:24:16 10° NNE 23:28:38 70° ESE 23:29:24 56° SSE
Cosmos 1707 Rocket 4.0 23:26:13 10° N 23:30:32 46° ENE 23:31:06 43° ESE
Cosmos 1869 4.0 23:28:01 10° N 23:31:44 39° ENE 23:31:44 39° ENE
SME Rocket 3.7 23:32:06 38° E 23:32:42 41° ENE 23:37:05 10° N
Tiangong 1 2.8 23:30:15 10° WNW 23:31:32 24° W 23:31:32 24° W
PSLV R/B 4.1 23:34:57 41° N 23:34:57 41° N 23:36:59 10° N
DELTA 2 DEB (DPAF) 4.4 23:37:15 48° ESE 23:37:55 53° ENE 23:42:17 10° N
SL-19 R/B 4.2 23:33:16 10° NNE 23:38:40 85° WNW 23:41:12 34° SSW
Cosmos 1503 Rocket 4.3 23:36:35 24° SW 23:39:39 64° WNW 23:44:48 10° NNE
CZ-2C R/B 4.0 23:36:52 10° NE 23:40:52 22° E 23:40:52 22° E
Spot 4 3.8 23:42:04 55° SE 23:43:04 76° ENE 23:47:57 10° N
Cosmos 1400 Rocket 4.5 23:44:03 23° ENE 23:44:03 23° ENE 23:46:40 10° NE
CZ-4C R/B 3.8 23:43:30 52° E 23:43:54 55° ENE 23:48:13 10° N
Cosmos 1666 Rocket 3.6 23:45:24 60° ESE 23:45:37 61° E 23:50:02 10° NNE
CARTOSAT-1 4.3 23:46:25 38° SW 23:47:17 43° W 23:51:26 10° NNW
CZ-4B R/B 3.4 23:44:00 10° NNE 23:49:18 81° ESE 23:50:35 52° S
Cosmos 540 Rocket 3.5 23:44:42 10° NNW 23:49:50 73° WSW 23:50:56 54° S
H-2A R/B 3.8 23:48:33 17° SW 23:51:19 26° W 23:55:47 10° NW
Cosmos 1072 Rocket 4.5 23:45:46 10° N 23:52:09 88° W 23:54:22 44° S
Cosmos 968 Rocket 3.6 23:52:54 53° SE 23:53:22 55° ESE 23:58:31 10° NNE
